TimePST,TemperatureF,Dew PointF,Humidity,Sea Level PressureIn,VisibilityMPH,Wind Direction,Wind SpeedMPH,Gust SpeedMPH,PrecipitationIn,Events,Conditions,WindDirDegrees,DateUTC
12:15 AM,46.4,44.6,93,29.83,4.0,SSW,5.8,9.2,0.06,Rain,Light Rain,200,2012-11-18 08:15:00
12:55 AM,46.4,44.6,93,29.83,10.0,South,16.1,26.5,0.08,,Mostly Cloudy,180,2012-11-18 08:55:00
1:15 AM,44.6,42.8,93,29.83,7.0,South,15.0,26.5,N/A,,Mostly Cloudy,180,2012-11-18 09:15:00
1:35 AM,44.6,42.8,93,29.83,10.0,South,12.7,21.9,N/A,,Mostly Cloudy,170,2012-11-18 09:35:00
1:55 AM,44.6,42.8,93,29.84,7.0,South,10.4,-,N/A,,Overcast,170,2012-11-18 09:55:00
2:15 AM,46.4,42.8,87,29.84,10.0,South,12.7,18.4,N/A,,Scattered Clouds,170,2012-11-18 10:15:00
2:35 AM,46.4,44.6,93,29.85,7.0,South,13.8,18.4,N/A,,Mostly Cloudy,170,2012-11-18 10:35:00
2:55 AM,46.4,42.8,87,29.84,10.0,SSE,11.5,20.7,N/A,,Overcast,160,2012-11-18 10:55:00
3:15 AM,46.4,44.6,93,29.84,10.0,SSE,12.7,21.9,N/A,,Overcast,160,2012-11-18 11:15:00
3:35 AM,46.4,44.6,93,29.84,4.0,South,15.0,23.0,0.02,Rain,Rain,190,2012-11-18 11:35:00
3:55 AM,46.4,44.6,93,29.83,5.0,SSE,10.4,-,0.07,Rain,Rain,160,2012-11-18 11:55:00
4:15 AM,44.6,44.6,100,29.84,5.0,South,10.4,19.6,0.04,Rain,Heavy Rain,170,2012-11-18 12:15:00
4:35 AM,44.6,42.8,93,29.83,7.0,SSE,8.1,18.4,0.09,Rain,Light Rain,150,2012-11-18 12:35:00
4:55 AM,46.4,44.6,93,29.83,7.0,South,12.7,17.3,0.10,Rain,Rain,180,2012-11-18 12:55:00
5:15 AM,46.4,44.6,93,29.83,7.0,South,15.0,21.9,N/A,Rain,Rain,190,2012-11-18 13:15:00
5:35 AM,46.4,46.4,100,29.82,5.0,South,11.5,-,0.01,Rain,Light Rain,170,2012-11-18 13:35:00
5:55 AM,48.2,46.4,93,29.82,5.0,South,19.6,24.2,0.02,Rain,Rain,180,2012-11-18 13:55:00
6:15 AM,48.2,46.4,93,29.82,4.0,South,16.1,28.8,0.04,Rain,Light Rain,190,2012-11-18 14:15:00
6:35 AM,48.2,46.4,93,29.82,7.0,South,16.1,21.9,0.04,,Overcast,180,2012-11-18 14:35:00
6:55 AM,48.2,46.4,93,29.82,5.0,South,11.5,18.4,0.04,Rain,Rain,170,2012-11-18 14:55:00
7:15 AM,46.4,44.6,93,29.82,10.0,South,12.7,18.4,0.01,Rain,Light Rain,170,2012-11-18 15:15:00
7:35 AM,46.4,44.6,93,29.82,10.0,South,12.7,17.3,0.01,,Light Drizzle,170,2012-11-18 15:35:00
7:55 AM,46.4,44.6,93,29.82,7.0,South,16.1,23.0,0.01,Rain,Light Rain,170,2012-11-18 15:55:00
8:15 AM,48.2,46.4,93,29.82,10.0,SSE,11.5,21.9,N/A,Rain,Light Rain,160,2012-11-18 16:15:00
8:35 AM,48.2,46.4,93,29.82,10.0,South,12.7,20.7,N/A,Rain,Light Rain,170,2012-11-18 16:35:00
8:55 AM,50.0,46.4,87,29.82,10.0,South,18.4,26.5,N/A,,Overcast,180,2012-11-18 16:55:00
9:15 AM,50.0,46.4,87,29.81,10.0,South,15.0,21.9,N/A,,Light Drizzle,170,2012-11-18 17:15:00
9:35 AM,50.0,46.4,87,29.81,10.0,South,13.8,23.0,N/A,Rain,Light Rain,170,2012-11-18 17:35:00
9:55 AM,50.0,46.4,87,29.80,10.0,SSE,12.7,19.6,N/A,Rain,Rain,150,2012-11-18 17:55:00
10:15 AM,50.0,46.4,87,29.80,10.0,South,15.0,19.6,0.02,Rain,Light Rain,170,2012-11-18 18:15:00
10:35 AM,50.0,46.4,87,29.80,10.0,South,13.8,19.6,0.02,Rain,Light Rain,170,2012-11-18 18:35:00
10:55 AM,50.0,46.4,87,29.80,10.0,South,18.4,32.2,0.02,,Light Drizzle,170,2012-11-18 18:55:00
11:15 AM,50.0,46.4,87,29.79,10.0,South,21.9,32.2,N/A,,Drizzle,180,2012-11-18 19:15:00
11:55 AM,50.0,46.4,87,29.76,7.0,South,24.2,33.4,0.01,Rain,Light Rain,190,2012-11-18 19:55:00
12:15 PM,50.0,46.4,87,29.75,7.0,South,25.3,36.8,N/A,Rain,Light Rain,180,2012-11-18 20:15:00
12:35 PM,50.0,46.4,87,29.75,10.0,South,27.6,40.3,0.01,Rain,Rain,170,2012-11-18 20:35:00
12:55 PM,50.0,46.4,87,29.73,7.0,South,25.3,40.3,0.01,Rain,Light Rain,180,2012-11-18 20:55:00
1:15 PM,50.0,46.4,87,29.73,7.0,South,16.1,32.2,0.01,Rain,Light Rain,180,2012-11-18 21:15:00
1:35 PM,50.0,46.4,87,29.72,7.0,South,28.8,38.0,0.02,Rain,Light Rain,180,2012-11-18 21:35:00
1:55 PM,50.0,46.4,87,29.72,7.0,South,28.8,35.7,0.03,Rain,Light Rain,180,2012-11-18 21:55:00
2:15 PM,50.0,46.4,87,29.71,5.0,South,27.6,40.3,0.03,Rain,Light Rain,170,2012-11-18 22:15:00
2:55 PM,50.0,46.4,87,29.69,7.0,South,24.2,31.1,0.06,Rain,Light Rain,180,2012-11-18 22:55:00
3:15 PM,50.0,46.4,87,29.67,10.0,South,25.3,39.1,0.01,Rain,Light Rain,180,2012-11-18 23:15:00
3:35 PM,50.0,46.4,87,29.67,7.0,South,24.2,40.3,0.03,Rain,Light Rain,180,2012-11-18 23:35:00
3:55 PM,50.0,46.4,87,29.67,5.0,South,29.9,41.4,0.04,Rain,Light Rain,180,2012-11-18 23:55:00
4:15 PM,50.0,46.4,87,29.66,7.0,South,28.8,36.8,0.01,Rain,Light Rain,180,2012-11-19 00:15:00
4:35 PM,50.0,46.4,87,29.65,7.0,South,31.1,43.7,0.01,Rain,Rain,180,2012-11-19 00:35:00
4:55 PM,50.0,46.4,87,29.65,10.0,South,34.5,46.0,0.02,Rain,Light Rain,180,2012-11-19 00:55:00
5:15 PM,51.8,46.4,82,29.65,10.0,South,32.2,51.8,N/A,Rain,Rain,190,2012-11-19 01:15:00
5:35 PM,51.8,46.4,82,29.66,10.0,South,32.2,50.6,N/A,Rain,Light Rain,180,2012-11-19 01:35:00
5:55 PM,50.0,46.4,87,29.66,4.0,South,33.4,44.9,N/A,Rain,Light Rain,180,2012-11-19 01:55:00
6:15 PM,50.0,46.4,87,29.66,5.0,South,32.2,48.3,N/A,Rain,Rain,180,2012-11-19 02:15:00
6:35 PM,50.0,48.2,94,29.66,7.0,South,28.8,41.4,N/A,Rain,Light Rain,190,2012-11-19 02:35:00
6:55 PM,50.0,48.2,94,-9999,4.0,South,24.2,40.3,N/A,Rain,Light Rain,190,2012-11-19 02:55:00
7:15 PM,50.0,48.2,94,29.67,4.0,South,28.8,41.4,0.02,Rain,Rain,190,2012-11-19 03:15:00
7:35 PM,51.8,50.0,94,29.66,3.0,South,25.3,40.3,0.06,Rain,Rain,180,2012-11-19 03:35:00
7:55 PM,51.8,50.0,94,29.64,4.0,South,28.8,43.7,0.09,Rain,Light Rain,180,2012-11-19 03:55:00
8:15 PM,51.8,50.0,94,29.64,5.0,South,31.1,50.6,0.01,Rain,Rain,190,2012-11-19 04:15:00
8:35 PM,51.8,50.0,94,29.63,5.0,South,35.7,44.9,0.02,Rain,Light Rain,190,2012-11-19 04:35:00
8:55 PM,51.8,50.0,94,29.63,5.0,South,33.4,56.4,0.02,Rain,Rain,190,2012-11-19 04:55:00
9:15 PM,51.8,50.0,94,29.64,5.0,South,32.2,47.2,0.03,Rain,Rain,190,2012-11-19 05:15:00
9:35 PM,51.8,50.0,94,29.64,3.0,South,35.7,43.7,0.06,Rain,Rain,190,2012-11-19 05:35:00
9:55 PM,51.8,50.0,94,29.64,2.5,South,28.8,44.9,0.14,Rain,Rain,190,2012-11-19 05:55:00
10:15 PM,51.8,50.0,94,29.66,3.0,South,33.4,43.7,0.04,Rain,Rain,190,2012-11-19 06:15:00
10:35 PM,51.8,50.0,94,29.66,2.5,South,31.1,44.9,0.11,Rain,Rain,190,2012-11-19 06:35:00
10:55 PM,51.8,51.8,100,29.68,3.0,South,36.8,46.0,0.04,Rain,Rain,190,2012-11-19 06:55:00
11:15 PM,53.6,51.8,94,29.65,5.0,South,38.0,57.5,0.01,Rain,Rain,190,2012-11-19 07:15:00
11:35 PM,53.6,51.8,94,29.64,5.0,South,35.7,54.1,0.01,Rain,Light Rain,190,2012-11-19 07:35:00
11:55 PM,53.6,51.8,94,29.64,3.0,South,41.4,58.7,0.04,Rain,Heavy Rain,190,2012-11-19 07:55:00